| time (UTC) | temp C | wind direction | speed KPH | gust KPH | rain 1hr cm | rain 24hr cm | rain mn cm | humidity % | barometer mb |
| 20260505221556 | 16 | 360 | 3.2 | 17.7 | 0.08 | 0.30 | 0.30 | 88 | 1004.3 |
| 20260505214551 | 17 | 5 | 0.0 | 0.0 | 0.05 | 0.23 | 0.23 | 90 | 1004.2 |
| 20260505213044 | 17 | 5 | 0.0 | 0.0 | 0.23 | 0.23 | 0.23 | 90 | 1003.4 |
| 20260505211609 | 16 | 355 | 6.4 | 19.3 | 0.23 | 0.23 | 0.23 | 90 | 1003.6 |
| 20260505210044 | 16 | 51 | 8.0 | 14.5 | 0.23 | 0.23 | 0.23 | 85 | 1003.8 |
| 20260505204553 | 17 | 350 | 4.8 | 40.2 | 0.18 | 0.18 | 0.18 | 76 | 1003.8 |
| 20260505203037 | 23 | 259 | 12.9 | 49.9 | 0.00 | 0.00 | 0.00 | 41 | 1003.1 |
| 20260505201540 | 23 | 213 | 16.1 | 35.4 | 0.00 | 0.00 | 0.00 | 39 | 1002.0 |
| 20260505200037 | 23 | 272 | 16.1 | 32.2 | 0.00 | 0.00 | 0.00 | 38 | 1002.1 |
| 20260505194534 | 23 | 177 | 17.7 | 38.6 | 0.00 | 0.00 | 0.00 | 39 | 1002.3 |
| 20260505193035 | 24 | 204 | 19.3 | 46.7 | 0.00 | 0.00 | 0.00 | 40 | 1002.4 |
| 20260505191535 | 24 | 160 | 22.5 | 35.4 | 0.00 | 0.00 | 0.00 | 39 | 1002.4 |
| 20260505190030 | 24 | 177 | 8.0 | 38.6 | 0.00 | 0.00 | 0.00 | 43 | 1002.6 |
| 20260505184538 | 24 | 200 | 17.7 | 33.8 | 0.00 | 0.00 | 0.00 | 38 | 1002.8 |
| 20260505183028 | 25 | 210 | 17.7 | 40.2 | 0.00 | 0.00 | 0.00 | 38 | 1002.9 |
| 20260505181527 | 23 | 212 | 17.7 | 37.0 | 0.00 | 0.00 | 0.00 | 41 | 1003.4 |
| 20260505180024 | 24 | 217 | 19.3 | 38.6 | 0.00 | 0.00 | 0.00 | 41 | 1003.5 |
| 20260505174534 | 25 | 191 | 14.5 | 57.9 | 0.00 | 0.00 | 0.00 | 39 | 1003.7 |
| 20260505173021 | 24 | 202 | 20.9 | 46.7 | 0.00 | 0.00 | 0.00 | 39 | 1003.9 |
| 20260505171530 | 24 | 175 | 19.3 | 41.8 | 0.00 | 0.00 | 0.00 | 41 | 1004.2 |
| 20260505170020 | 23 | 202 | 30.6 | 53.1 | 0.00 | 0.00 | 0.00 | 40 | 1004.3 |
| 20260505164517 | 24 | 230 | 24.1 | 40.2 | 0.00 | 0.00 | 0.00 | 40 | 1004.3 |
| 20260505163015 | 23 | 195 | 12.9 | 41.8 | 0.00 | 0.00 | 0.00 | 43 | 1004.5 |
| 20260505161511 | 23 | 209 | 6.4 | 37.0 | 0.00 | 0.00 | 0.00 | 46 | 1004.6 |
| 20260505153002 | 21 | 209 | 8.0 | 25.7 | 0.00 | 0.00 | 0.00 | 52 | 1005.5 |
| 20260505151605 | 20 | 196 | 6.4 | 40.2 | 0.00 | 0.00 | 0.00 | 51 | 1005.4 |
| 20260505124534 | 16 | 200 | 1.6 | 6.4 | 0.00 | 0.00 | 0.00 | 70 | 1006.3 |
| 20260505123045 | 15 | 211 | 3.2 | 12.9 | 0.00 | 0.00 | 0.00 | 73 | 1006.2 |
| 20260505121527 | 14 | 182 | 6.4 | 12.9 | 0.00 | 0.00 | 0.00 | 74 | 1006.1 |
| 20260505120023 | 14 | 211 | 1.6 | 8.0 | 0.00 | 0.00 | 0.00 | 73 | 1006.2 |
| 20260505114522 | 14 | 190 | 0.0 | 9.7 | 0.00 | 0.00 | 0.00 | 69 | 1006.4 |
| 20260505113019 | 13 | 211 | 0.0 | 17.7 | 0.00 | 0.00 | 0.00 | 69 | 1006.6 |
| 20260505111515 | 11 | 113 | 0.0 | 0.0 | 0.00 | 0.00 | 0.00 | 72 | 1006.9 |
| 20260505101506 | 11 | 151 | 0.0 | 0.0 | 0.00 | 0.00 | 0.00 | 72 | 1006.1 |
| 20260505100003 | 11 | 151 | 0.0 | 0.0 | 0.00 | 0.00 | 0.00 | 70 | 1006.0 |
| 20260505094501 | 11 | 129 | 0.0 | 0.0 | 0.00 | 0.00 | 0.00 | 71 | 1006.1 |
| 20260505093101 | 10 | 107 | 0.0 | 4.8 | 0.00 | 0.00 | 0.00 | 72 | 1006.1 |
| 20260505093002 | 10 | 105 | 0.0 | 4.8 | 0.00 | 0.00 | 0.00 | 72 | 1006.1 |
| 20260505091600 | 10 | 92 | 0.0 | 0.0 | 0.00 | 0.00 | 0.00 | 72 | 1006.1 |
| 20260505090100 | 10 | 92 | 0.0 | 0.0 | 0.00 | 0.00 | 0.00 | 71 | 1006.2 |
| 20260505084604 | 11 | 92 | 0.0 | 0.0 | 0.00 | 0.00 | 0.00 | 70 | 1006.3 |
| 20260505083109 | 11 | 92 | 0.0 | 0.0 | 0.00 | 0.00 | 0.00 | 69 | 1006.3 |
| 20260505081556 | 11 | 92 | 0.0 | 0.0 | 0.00 | 0.00 | 0.00 | 69 | 1006.4 |
| 20260505080103 | 10 | 92 | 0.0 | 0.0 | 0.00 | 0.00 | 0.00 | 70 | 1006.3 |
| 20260505074553 | 11 | 132 | 0.0 | 0.0 | 0.00 | 0.00 | 0.00 | 70 | 1006.4 |
| 20260505073058 | 11 | 132 | 0.0 | 0.0 | 0.00 | 0.00 | 0.00 | 68 | 1006.3 |
| 20260505071550 | 11 | 132 | 0.0 | 0.0 | 0.00 | 0.00 | 0.00 | 68 | 1006.4 |
| 20260505070050 | 11 | 132 | 0.0 | 0.0 | 0.00 | 0.00 | 0.00 | 67 | 1006.6 |
| 20260505064615 | 11 | 132 | 0.0 | 0.0 | 0.00 | 0.00 | 0.00 | 66 | 1006.7 |
| 20260505063045 | 11 | 132 | 1.6 | 4.8 | 0.00 | 0.00 | 0.00 | 66 | 1006.6 |
| 20260505061544 | 11 | 122 | 1.6 | 12.9 | 0.00 | 0.00 | 0.00 | 66 | 1006.7 |
| 20260505060044 | 11 | 79 | 0.0 | 0.0 | 0.00 | 0.00 | 0.00 | 67 | 1006.7 |
| 20260505054548 | 11 | 153 | 0.0 | 0.0 | 0.00 | 0.00 | 0.00 | 67 | 1006.8 |
| 20260505053041 | 11 | 153 | 0.0 | 4.8 | 0.00 | 0.00 | 0.00 | 65 | 1006.9 |
| 20260505051539 | 12 | 132 | 0.0 | 6.4 | 0.00 | 0.00 | 0.00 | 63 | 1007.0 |
| 20260505041533 | 11 | 132 | 0.0 | 3.2 | 0.00 | 0.00 | 0.00 | 62 | 1007.1 |
| 20260505040031 | 11 | 91 | 0.0 | 3.2 | 0.00 | 0.00 | 0.00 | 60 | 1007.0 |
| 20260505034538 | 12 | 165 | 0.0 | 4.8 | 0.00 | 0.00 | 0.00 | 60 | 1006.9 |
| 20260505033031 | 12 | 118 | 0.0 | 0.0 | 0.00 | 0.00 | 0.00 | 60 | 1006.7 |
| 20260505031530 | 12 | 118 | 0.0 | 6.4 | 0.00 | 0.00 | 0.00 | 60 | 1006.7 |
| 20260505030043 | 12 | 103 | 0.0 | 1.6 | 0.00 | 0.00 | 0.00 | 58 | 1006.7 |
| 20260505024529 | 12 | 149 | 0.0 | 0.0 | 0.00 | 0.00 | 0.00 | 58 | 1006.7 |
| 20260505023035 | 13 | 130 | 0.0 | 0.0 | 0.00 | 0.00 | 0.00 | 57 | 1006.9 |
| 20260505021530 | 13 | 144 | 0.0 | 1.6 | 0.00 | 0.00 | 0.00 | 56 | 1007.0 |
| 20260505020027 | 13 | 95 | 0.0 | 8.0 | 0.00 | 0.00 | 0.00 | 56 | 1007.0 |
| 20260505014535 | 13 | 157 | 0.0 | 3.2 | 0.00 | 0.00 | 0.00 | 55 | 1006.9 |
| 20260505013026 | 13 | 150 | 0.0 | 0.0 | 0.00 | 0.00 | 0.00 | 55 | 1006.9 |
| 20260505011526 | 13 | 150 | 0.0 | 0.0 | 0.00 | 0.00 | 0.00 | 55 | 1006.8 |
| 20260505010025 | 13 | 151 | 0.0 | 0.0 | 0.00 | 0.00 | 0.00 | 55 | 1006.7 |
| 20260505004550 | 14 | 151 | 0.0 | 0.0 | 0.00 | 0.00 | 0.00 | 53 | 1006.5 |
| 20260505003024 | 15 | 207 | 0.0 | 0.0 | 0.00 | 0.00 | 0.00 | 52 | 1006.4 |
| 20260505001524 | 15 | 207 | 0.0 | 0.0 | 0.00 | 0.00 | 0.00 | 48 | 1006.2 |
| 20260505000023 | 16 | 207 | 0.0 | 0.0 | 0.00 | 0.00 | 0.00 | 47 | 1006.1 |
| 20260504234523 | 16 | 211 | 1.6 | 8.0 | 0.00 | 0.00 | 0.00 | 45 | 1006.0 |
| 20260504233024 | 17 | 208 | 3.2 | 14.5 | 0.00 | 0.00 | 0.00 | 45 | 1005.7 |
| 20260504231522 | 17 | 200 | 0.0 | 11.3 | 0.00 | 0.00 | 0.00 | 45 | 1005.6 |
| 20260504230021 | 17 | 220 | 6.4 | 19.3 | 0.00 | 0.00 | 0.00 | 44 | 1005.5 |
| 20260504224526 | 17 | 181 | 6.4 | 16.1 | 0.00 | 0.00 | 0.00 | 44 | 1005.3 |
| 20260504223020 | 17 | 196 | 4.8 | 16.1 | 0.00 | 0.00 | 0.00 | 44 | 1005.4 |